IZ8XTV-13 Weather Reports


time (UTC)temp
C
wind
direction
speed
KPH
gust
KPH
rain 1hr
cm
rain 24hr
cm
rain mn
cm
humidity
%
barometer
mb
20260508045817 15 0 0.0 0.0 0.00 0.00 0.00 99 1011.9
20260508044805 15 0 0.0 0.0 0.00 0.00 0.00 99 1011.9
20260508043753 14 0 0.0 0.0 0.00 0.00 0.00 99 1011.9
20260508042742 14 0 0.0 0.0 0.00 0.00 0.00 99 1011.8
20260508041730 14 0 0.0 0.0 0.00 0.00 0.00 99 1011.6
20260508040718 14 0 0.0 0.0 0.00 0.00 0.00 99 1011.4
20260508035707 14 0 0.0 0.0 0.00 0.00 0.00 99 1011.3
20260508034654 14 0 0.0 0.0 0.00 0.00 0.00 99 1011.3
20260508033642 15 0 0.0 0.0 0.00 0.00 0.00 99 1011.3
20260508032630 15 0 0.0 0.0 0.00 0.00 0.00 99 1011.3
20260508031619 15 0 0.0 0.0 0.00 0.00 0.00 99 1011.3
20260508030607 15 0 0.0 0.0 0.00 0.00 0.00 99 1011.3
20260508025555 15 0 0.0 0.0 0.00 0.00 0.00 99 1011.3
20260508024544 15 0 0.0 0.0 0.00 0.00 0.00 99 1011.4
20260508023532 15 0 0.0 0.0 0.00 0.00 0.00 99 1011.5
20260508022520 15 0 0.0 0.0 0.00 0.00 0.00 99 1011.5
20260508021507 15 0 0.0 0.0 0.00 0.00 0.00 99 1011.6
20260508020455 15 0 0.0 0.0 0.00 0.00 0.00 99 1011.5
20260508015444 15 0 0.0 0.0 0.00 0.00 0.00 99 1011.5
20260508014432 16 0 0.0 0.0 0.00 0.00 0.00 99 1011.6
20260508013419 16 0 0.0 0.0 0.00 0.00 0.00 99 1011.6
20260508012406 16 0 0.0 0.0 0.00 0.00 0.00 99 1011.4
20260508011354 16 0 0.0 0.0 0.00 0.00 0.00 99 1011.4
20260508010342 16 0 0.0 0.0 0.00 0.00 0.00 99 1011.3
20260508005330 16 0 0.0 0.0 0.00 0.00 0.00 99 1011.4
20260508004318 16 0 0.0 0.0 0.00 0.00 0.00 99 1011.4
20260508003306 16 0 0.0 0.0 0.00 0.00 0.00 99 1011.4
20260508002254 16 0 0.0 0.0 0.00 0.00 0.00 99 1011.2
20260508001242 16 0 0.0 0.0 0.00 0.00 0.00 99 1011.3
20260508000230 16 0 0.0 0.0 0.00 0.00 0.00 99 1011.4
20260507235218 17 0 0.0 0.0 0.00 0.00 0.00 99 1011.6
20260507234206 17 0 0.0 0.0 0.00 0.00 0.00 99 1011.8
20260507233154 17 0 0.0 0.0 0.00 0.00 0.00 99 1011.9
20260507232143 17 0 0.0 0.0 0.00 0.00 0.00 99 1011.9
20260507231131 17 0 0.0 0.0 0.00 0.00 0.00 99 1011.9
20260507230119 17 0 0.0 0.0 0.00 0.00 0.00 99 1011.8
20260507225108 17 0 0.0 0.0 0.00 0.00 0.00 99 1012.0
20260507224056 17 0 0.0 0.0 0.00 0.00 0.00 99 1012.1
20260507223044 17 0 0.0 0.0 0.00 0.00 0.00 99 1012.1
20260507222032 17 0 0.0 0.0 0.00 0.00 0.00 99 1012.2
20260507221020 18 0 0.0 0.0 0.00 0.00 0.00 99 1012.3
20260507220009 18 0 0.0 0.0 0.00 0.00 0.00 99 1012.2
20260507214957 17 0 0.0 0.0 0.00 0.00 0.00 99 1012.2
20260507213945 18 0 0.0 0.0 0.00 0.00 0.00 99 1012.1
20260507212933 18 0 0.0 0.0 0.00 0.00 0.00 99 1012.1
20260507211921 18 0 0.0 0.0 0.00 0.00 0.00 99 1012.2
20260507210908 18 0 0.0 0.0 0.00 0.00 0.00 99 1012.4
20260507205856 18 0 0.0 0.0 0.00 0.00 0.00 99 1012.5
20260507204844 18 0 0.0 0.0 0.00 0.00 0.00 99 1012.5
20260507203832 18 0 0.0 0.0 0.00 0.00 0.00 99 1012.6
20260507202821 18 0 0.0 0.0 0.00 0.00 0.00 99 1012.5
20260507201808 19 0 0.0 0.0 0.00 0.00 0.00 99 1012.6
20260507200756 19 0 0.0 0.0 0.00 0.00 0.00 99 1012.4
20260507195744 19 0 0.0 0.0 0.00 0.00 0.00 99 1012.3
20260507194732 19 0 0.0 0.0 0.00 0.00 0.00 99 1012.2
20260507193720 20 0 0.0 0.0 0.00 0.00 0.00 99 1012.4
20260507192708 20 0 0.0 0.0 0.00 0.00 0.00 99 1012.6
20260507191656 20 0 0.0 0.0 0.00 0.00 0.00 99 1012.7
20260507190645 20 0 0.0 0.0 0.00 0.00 0.00 99 1012.5
20260507185633 20 0 0.0 0.0 0.00 0.00 0.00 99 1012.4
20260507184622 20 0 0.0 0.0 0.00 0.00 0.00 99 1012.2
20260507183610 20 0 0.0 0.0 0.00 0.00 0.00 99 1012.0
20260507182559 20 0 0.0 0.0 0.00 0.00 0.00 99 1011.9
20260507181547 21 0 0.0 0.0 0.00 0.00 0.00 99 1011.8
20260507180536 21 0 0.0 0.0 0.00 0.00 0.00 99 1011.8
20260507175525 21 0 0.0 0.0 0.00 0.00 0.00 99 1011.9
20260507174512 21 0 0.0 0.0 0.00 0.00 0.00 99 1011.8
20260507173501 22 0 0.0 0.0 0.00 0.00 0.00 99 1011.7
20260507172451 22 0 0.0 0.0 0.00 0.00 0.00 99 1011.6
20260507171437 22 0 0.0 0.0 0.00 0.00 0.00 98 1011.7
20260507170425 22 0 0.0 0.0 0.00 0.00 0.00 95 1011.4
20260507165413 23 0 0.0 0.0 0.00 0.00 0.00 91 1011.4
20260507164402 23 0 0.0 0.0 0.00 0.00 0.00 87 1011.4
20260507163351 23 0 0.0 0.0 0.00 0.00 0.00 88 1011.4
20260507162340 24 0 0.0 0.0 0.00 0.00 0.00 87 1011.3
20260507161328 23 0 0.0 0.0 0.00 0.00 0.00 87 1011.5
20260507160316 23 0 0.0 0.0 0.00 0.00 0.00 87 1011.5
20260507155306 24 0 0.0 0.0 0.00 0.00 0.00 87 1011.6
20260507155020 23 0 0.0 0.0 0.00 0.00 0.00 87 1011.6
20260507154010 24 0 0.0 0.0 0.00 0.00 0.00 85 1011.7
20260507152958 24 0 0.0 0.0 0.00 0.00 0.00 85 1011.8
20260507151947 24 0 0.0 0.0 0.00 0.00 0.00 83 1011.9
20260507150936 25 0 0.0 0.0 0.00 0.00 0.00 81 1011.9
20260507145925 25 0 0.0 0.0 0.00 0.00 0.00 80 1012.0
20260507144914 25 0 0.0 0.0 0.00 0.00 0.00 79 1011.8
20260507143903 25 0 0.0 0.0 0.00 0.00 0.00 80 1012.0
20260507142852 25 0 0.0 0.0 0.00 0.00 0.00 75 1012.1
20260507141841 25 0 0.0 0.0 0.00 0.00 0.00 74 1012.2
20260507140830 25 0 0.0 0.0 0.00 0.00 0.00 73 1012.3
20260507135819 25 0 0.0 0.0 0.00 0.00 0.00 74 1012.3
20260507134808 25 0 0.0 0.0 0.00 0.00 0.00 74 1012.4
20260507133757 25 0 0.0 0.0 0.00 0.00 0.00 76 1012.4
20260507132746 25 0 0.0 0.0 0.00 0.00 0.00 76 1012.5
20260507131735 25 0 0.0 0.0 0.00 0.00 0.00 77 1012.6
20260507130724 25 0 0.0 0.0 0.00 0.00 0.00 76 1012.7
20260507125713 25 0 0.0 0.0 0.00 0.00 0.00 76 1012.9
20260507124702 25 0 0.0 0.0 0.00 0.00 0.00 76 1013.0
20260507123651 25 0 0.0 0.0 0.00 0.00 0.00 77 1013.2
20260507122639 25 0 0.0 0.0 0.00 0.00 0.00 77 1013.3
20260507121628 25 0 0.0 0.0 0.00 0.00 0.00 79 1013.2
20260507120617 25 0 0.0 0.0 0.00 0.00 0.00 79 1013.3
20260507115606 24 0 0.0 0.0 0.00 0.00 0.00 80 1013.4
20260507114555 24 0 0.0 0.0 0.00 0.00 0.00 86 1013.5
20260507113544 25 0 0.0 0.0 0.00 0.00 0.00 86 1013.6
20260507112532 24 0 0.0 0.0 0.00 0.00 0.00 87 1013.8
20260507111520 25 0 0.0 0.0 0.00 0.00 0.00 87 1013.9
20260507110507 25 0 0.0 0.0 0.00 0.00 0.00 87 1013.9
20260507105454 25 0 0.0 0.0 0.00 0.00 0.00 88 1014.0
20260507104443 24 0 0.0 0.0 0.00 0.00 0.00 91 1014.2
20260507103432 23 0 0.0 0.0 0.00 0.00 0.00 94 1014.2
20260507102420 23 0 0.0 0.0 0.00 0.00 0.00 96 1013.9
20260507101409 23 0 0.0 0.0 0.00 0.00 0.00 97 1014.1
20260507100358 22 0 0.0 0.0 0.00 0.00 0.00 96 1014.0
20260507095345 22 0 0.0 0.0 0.00 0.00 0.00 99 1014.2
20260507094334 22 0 0.0 0.0 0.00 0.00 0.00 99 1014.1
20260507093321 22 0 0.0 0.0 0.00 0.00 0.00 99 1014.2
20260507092309 21 0 0.0 0.0 0.00 0.00 0.00 99 1014.1
20260507091257 21 0 0.0 0.0 0.00 0.00 0.00 99 1014.2
20260507090245 21 0 0.0 0.0 0.00 0.00 0.00 99 1014.3
20260507085233 20 0 0.0 0.0 0.00 0.00 0.00 99 1014.3
20260507084220 20 0 0.0 0.0 0.00 0.00 0.00 99 1014.3
20260507083209 21 0 0.0 0.0 0.00 0.00 0.00 99 1014.5
20260507082158 20 0 0.0 0.0 0.00 0.00 0.00 99 1014.6
20260507081145 20 0 0.0 0.0 0.00 0.00 0.00 99 1014.6
20260507080132 19 0 0.0 0.0 0.00 0.00 0.00 99 1014.5
20260507075121 19 0 0.0 0.0 0.00 0.00 0.00 99 1014.4
20260507074109 18 0 0.0 0.0 0.00 0.00 0.00 99 1014.4
20260507073058 18 0 0.0 0.0 0.00 0.00 0.00 99 1014.4
20260507072046 18 0 0.0 0.0 0.00 0.00 0.00 99 1014.6
20260507071034 18 0 0.0 0.0 0.00 0.00 0.00 99 1014.6
20260507070023 17 0 0.0 0.0 0.00 0.00 0.00 99 1014.5
20260507065011 17 0 0.0 0.0 0.00 0.00 0.00 99 1014.4
20260507063959 17 0 0.0 0.0 0.00 0.00 0.00 99 1014.4
20260507062947 16 0 0.0 0.0 0.00 0.00 0.00 99 1014.5
20260507061935 16 0 0.0 0.0 0.00 0.00 0.00 99 1014.6
20260507060922 16 0 0.0 0.0 0.00 0.00 0.00 99 1014.7
20260507055911 15 0 0.0 0.0 0.00 0.00 0.00 99 1014.6
20260507054859 15 0 0.0 0.0 0.00 0.00 0.00 99 1014.7
20260507053846 15 0 0.0 0.0 0.00 0.00 0.00 99 1014.6
20260507052835 15 0 0.0 0.0 0.00 0.00 0.00 99 1014.4
20260507051823 15 0 0.0 0.0 0.00 0.00 0.00 99 1014.2
20260507050811 15 0 0.0 0.0 0.00 0.00 0.00 99 1014.1